| time (UTC) | temp C | wind direction | speed KPH | gust KPH | rain 1hr cm | rain 24hr cm | rain mn cm | humidity % | barometer mb |
| 20260506090047 | 17 | 300 | 12.9 | 22.5 | 0.00 | 0.00 | 0.00 | 32 | 1008.4 |
| 20260506084547 | 18 | 294 | 12.9 | 20.9 | 0.00 | 0.00 | 0.00 | 31 | 1008.2 |
| 20260506083043 | 18 | 295 | 16.1 | 25.7 | 0.00 | 0.00 | 0.00 | 29 | 1008.2 |
| 20260506081541 | 18 | 289 | 12.9 | 25.7 | 0.00 | 0.00 | 0.00 | 28 | 1008.1 |
| 20260506073042 | 19 | 286 | 17.7 | 29.0 | 0.00 | 0.00 | 0.00 | 26 | 1007.9 |
| 20260506071534 | 20 | 277 | 20.9 | 29.0 | 0.00 | 0.00 | 0.00 | 26 | 1007.8 |
| 20260506061528 | 21 | 279 | 29.0 | 48.3 | 0.00 | 0.00 | 0.00 | 22 | 1007.6 |
| 20260506044513 | 22 | 285 | 29.0 | 48.3 | 0.00 | 0.00 | 0.00 | 20 | 1007.0 |
| 20260506043012 | 22 | 283 | 25.7 | 45.1 | 0.00 | 0.00 | 0.00 | 20 | 1006.8 |
| 20260506041512 | 22 | 274 | 22.5 | 33.8 | 0.00 | 0.00 | 0.00 | 19 | 1006.8 |
| 20260506040032 | 22 | 271 | 25.7 | 33.8 | 0.00 | 0.00 | 0.00 | 18 | 1006.6 |
| 20260506034510 | 22 | 294 | 20.9 | 35.4 | 0.00 | 0.00 | 0.00 | 17 | 1006.3 |
| 20260506033009 | 23 | 292 | 22.5 | 41.8 | 0.00 | 0.00 | 0.00 | 17 | 1006.1 |
| 20260506031521 | 23 | 288 | 20.9 | 37.0 | 0.00 | 0.00 | 0.00 | 18 | 1005.6 |
| 20260506030008 | 23 | 259 | 27.4 | 45.1 | 0.00 | 0.00 | 0.00 | 16 | 1005.3 |
| 20260506024516 | 23 | 266 | 29.0 | 46.7 | 0.00 | 0.00 | 0.00 | 17 | 1005.1 |
| 20260506023006 | 24 | 240 | 30.6 | 43.5 | 0.00 | 0.00 | 0.00 | 19 | 1004.9 |
| 20260506021506 | 24 | 221 | 19.3 | 41.8 | 0.00 | 0.00 | 0.00 | 21 | 1004.6 |
| 20260506020003 | 24 | 269 | 16.1 | 32.2 | 0.00 | 0.00 | 0.00 | 21 | 1004.5 |
| 20260506014503 | 24 | 266 | 22.5 | 43.5 | 0.00 | 0.00 | 0.00 | 19 | 1004.4 |
| 20260506013002 | 25 | 269 | 30.6 | 48.3 | 0.00 | 0.00 | 0.00 | 19 | 1004.2 |
| 20260506011502 | 25 | 268 | 32.2 | 46.7 | 0.00 | 0.00 | 0.00 | 20 | 1004.2 |
| 20260506010101 | 25 | 271 | 27.4 | 46.7 | 0.00 | 0.00 | 0.00 | 19 | 1004.2 |
| 20260506004600 | 25 | 236 | 27.4 | 51.5 | 0.00 | 0.00 | 0.00 | 19 | 1004.0 |
| 20260506003059 | 25 | 261 | 27.4 | 51.5 | 0.00 | 0.00 | 0.00 | 18 | 1003.8 |
| 20260506001558 | 25 | 287 | 29.0 | 54.7 | 0.00 | 0.00 | 0.00 | 19 | 1003.9 |
| 20260506000101 | 25 | 300 | 25.7 | 48.3 | 0.00 | 0.00 | 0.00 | 22 | 1003.8 |
| 20260505234603 | 25 | 291 | 30.6 | 48.3 | 0.00 | 0.00 | 0.00 | 23 | 1003.8 |
| 20260505233108 | 25 | 264 | 24.1 | 37.0 | 0.00 | 0.00 | 0.00 | 27 | 1003.7 |
| 20260505231553 | 25 | 302 | 29.0 | 37.0 | 0.00 | 0.00 | 0.00 | 29 | 1003.8 |
| 20260505230043 | 24 | 309 | 19.3 | 41.8 | 0.00 | 0.00 | 0.00 | 31 | 1003.9 |
| 20260505224541 | 24 | 268 | 25.7 | 40.2 | 0.00 | 0.00 | 0.00 | 31 | 1004.3 |
| 20260505223049 | 24 | 275 | 30.6 | 43.5 | 0.00 | 0.00 | 0.00 | 32 | 1004.5 |
| 20260505221539 | 24 | 294 | 30.6 | 46.7 | 0.00 | 0.00 | 0.00 | 32 | 1004.7 |
| 20260505220041 | 24 | 244 | 30.6 | 46.7 | 0.00 | 0.00 | 0.00 | 31 | 1004.7 |
| 20260505214541 | 23 | 295 | 20.9 | 45.1 | 0.00 | 0.00 | 0.00 | 33 | 1004.7 |
| 20260505213033 | 23 | 296 | 20.9 | 40.2 | 0.00 | 0.00 | 0.00 | 33 | 1005.1 |
| 20260505211531 | 23 | 306 | 25.7 | 35.4 | 0.00 | 0.00 | 0.00 | 33 | 1005.5 |
| 20260505210030 | 23 | 304 | 17.7 | 33.8 | 0.00 | 0.00 | 0.00 | 32 | 1005.8 |
| 20260505204534 | 23 | 279 | 22.5 | 38.6 | 0.00 | 0.00 | 0.00 | 33 | 1006.1 |
| 20260505203031 | 23 | 296 | 19.3 | 35.4 | 0.00 | 0.00 | 0.00 | 34 | 1006.1 |
| 20260505201528 | 23 | 245 | 19.3 | 40.2 | 0.00 | 0.00 | 0.00 | 34 | 1006.4 |
| 20260505200038 | 23 | 302 | 16.1 | 37.0 | 0.00 | 0.00 | 0.00 | 35 | 1006.4 |
| 20260505194527 | 22 | 306 | 25.7 | 37.0 | 0.00 | 0.00 | 0.00 | 36 | 1006.6 |
| 20260505193026 | 23 | 292 | 22.5 | 46.7 | 0.00 | 0.00 | 0.00 | 34 | 1007.0 |
| 20260505191526 | 23 | 259 | 22.5 | 51.5 | 0.00 | 0.00 | 0.00 | 33 | 1007.2 |
| 20260505190034 | 22 | 308 | 33.8 | 49.9 | 0.00 | 0.00 | 0.00 | 33 | 1007.2 |
| 20260505184524 | 23 | 265 | 19.3 | 35.4 | 0.00 | 0.00 | 0.00 | 33 | 1007.1 |
| 20260505183022 | 24 | 295 | 22.5 | 32.2 | 0.00 | 0.00 | 0.00 | 29 | 1007.1 |
| 20260505181521 | 23 | 257 | 19.3 | 41.8 | 0.00 | 0.00 | 0.00 | 31 | 1007.1 |
| 20260505180018 | 23 | 255 | 22.5 | 37.0 | 0.00 | 0.00 | 0.00 | 29 | 1007.3 |
| 20260505174516 | 22 | 266 | 12.9 | 37.0 | 0.00 | 0.00 | 0.00 | 34 | 1007.1 |
| 20260505173015 | 22 | 235 | 14.5 | 25.7 | 0.00 | 0.00 | 0.00 | 36 | 1007.1 |
| 20260505171521 | 21 | 275 | 14.5 | 22.5 | 0.00 | 0.00 | 0.00 | 38 | 1007.0 |
| 20260505170016 | 20 | 283 | 12.9 | 22.5 | 0.00 | 0.00 | 0.00 | 39 | 1007.1 |
| 20260505164511 | 20 | 269 | 12.9 | 17.7 | 0.00 | 0.00 | 0.00 | 40 | 1007.2 |
| 20260505163011 | 20 | 319 | 4.8 | 20.9 | 0.00 | 0.00 | 0.00 | 41 | 1007.1 |
| 20260505161509 | 19 | 355 | 9.7 | 17.7 | 0.00 | 0.00 | 0.00 | 42 | 1007.1 |
| 20260505153006 | 18 | 320 | 12.9 | 20.9 | 0.00 | 0.00 | 0.00 | 44 | 1007.2 |
| 20260505151505 | 18 | 277 | 12.9 | 20.9 | 0.00 | 0.00 | 0.00 | 46 | 1007.3 |
| 20260505130103 | 17 | 309 | 14.5 | 25.7 | 0.00 | 0.00 | 0.00 | 47 | 1007.1 |
| 20260505124540 | 17 | 317 | 9.7 | 20.9 | 0.00 | 0.00 | 0.00 | 45 | 1006.9 |
| 20260505123039 | 17 | 335 | 14.5 | 24.1 | 0.00 | 0.00 | 0.00 | 45 | 1006.7 |
| 20260505121533 | 17 | 318 | 17.7 | 32.2 | 0.00 | 0.00 | 0.00 | 45 | 1006.5 |
| 20260505120030 | 17 | 317 | 14.5 | 32.2 | 0.00 | 0.00 | 0.00 | 45 | 1006.2 |
| 20260505114528 | 18 | 311 | 17.7 | 30.6 | 0.00 | 0.00 | 0.00 | 44 | 1006.2 |
| 20260505113027 | 18 | 312 | 20.9 | 33.8 | 0.00 | 0.00 | 0.00 | 43 | 1006.1 |
| 20260505111534 | 18 | 291 | 20.9 | 29.0 | 0.00 | 0.00 | 0.00 | 43 | 1006.0 |
| 20260505101518 | 18 | 317 | 20.9 | 29.0 | 0.00 | 0.00 | 0.00 | 41 | 1005.6 |
| 20260505100018 | 19 | 303 | 22.5 | 41.8 | 0.00 | 0.00 | 0.00 | 41 | 1005.3 |
| 20260505094515 | 19 | 309 | 19.3 | 29.0 | 0.00 | 0.00 | 0.00 | 40 | 1005.6 |
| 20260505093011 | 19 | 299 | 17.7 | 29.0 | 0.00 | 0.00 | 0.00 | 40 | 1005.5 |
| 20260505091509 | 19 | 314 | 19.3 | 27.4 | 0.00 | 0.00 | 0.00 | 39 | 1005.7 |